Location: Balaclava NSW 2575, Australia
(34.4510°S, 150.4953°E)
Time: 18:37:22
(UTC+10:00)

Vanguard 2 - Pass Details

Date: 22 June 2021
Orbit: 552 x 2937 km, 32.9° (Epoch: 24 July)

Event Time Altitude Azimuth Distance (km) Brightness Sun altitude
Rises 11:23:23 0° 260° (W) 5,293 11.6 31.5°
Reaches altitude 10° 11:26:46 10° 267° (W) 4,593 11.5 31.6°
Maximum altitude 11:38:57 39° 329° (NNW) 3,564 12.1 31.9°
Drops below altitude 10° 11:54:27 10° 29° (NNE) 5,759 13.1 32.1°
Sets 11:59:25 0° 36° (NE) 6,729 13.1 32.1°
